Location: ??????????
(54.8537°N, 38.8755°E)
Time: 02:58:23
(UTC+00:00)

Vanguard 2 Rocket - Pass Details

Date: 17 September 2024
Orbit: 553 x 3298 km, 32.9° (Epoch: 10 October)

Event Time Altitude Azimuth Distance (km) Brightness Sun altitude
Rises 23:38:54 0° 232° (SW) 4,649 - -26.5°
Reaches altitude 10° 23:42:10 10° 220° (SW) 4,035 - -26.2°
Exits shadow 23:48:41 26° 184° (S) 3,573 9.4 -25.6°
Maximum altitude 23:51:10 27° 168° (SSE) 3,701 9.6 -25.3°
Drops below altitude 10° 00:03:58 10° 120° (ESE) 5,851 11.2 -24.0°
Sets 00:10:04 0° 111° (ESE) 7,129 11.8 -23.4°
